This demonstration page uses our WeatherBlox Daily Observations layout. Learn more.

Hourly Observations for December 16, 2019

Temp ( °F °C ) Dew Point ( °F °C ) Humidity (%) Winds ( mph kmh ) Pressure ( in mb ) Visibility ( mi km ) Precip ( " mm )
12:54 am 00:54 Cloudy 20 -6.7 17 -8.3 89 89 N 5 7 30.16 1021 7 11.26538 0 0
1:54 am 01:54 Cloudy 20 -6.7 16 -8.9 85 85 N 8 13 30.15 1021 7 11.26538 0 0
2:54 am 02:54 Cloudy 20 -6.7 16 -8.9 85 85 SE 3 6 30.23 1024 7 11.26538 0 0
3:54 am 03:54 Cloudy 20 -6.7 16 -8.9 85 85 Calm 30.24 1024 7 11.26538 0 0
4:54 am 04:54 Cloudy with Mist and Fog 20 -6.7 16 -8.9 85 85 WNW 6 9 30.22 1024 6 9.65604 0 0
5:54 am 05:54 Cloudy with Mist and Fog 20 -6.7 16 -8.9 85 85 W 3 6 30.24 1024 6 9.65604 0 0
6:54 am 06:54 Cloudy with Mist and Fog 20 -6.7 16 -8.9 85 85 Calm 30.24 1024 6 9.65604 0 0
7:54 am 07:54 Cloudy with Mist and Fog 20 -6.7 16 -8.9 85 85 NNW 5 7 30.27 1025 6 9.65604 0 0
8:54 am 08:54 Cloudy with Mist and Fog 20 -6.7 17 -8.3 89 89 N 3 6 30.27 1025 4 6.43736 0 0
9:11 am 09:11 Cloudy with Light Snow 20 -6.7 17 -8.3 89 89 N 5 7 30.31 1027 1.75 2.816345 0.001 0.001
9:39 am 09:39 Cloudy with Mist and Fog 21 -6.1 17 -8.3 85 85 NE 3 6 30.31 1026 3 4.82802 0.001 0.001
9:48 am 09:48 Cloudy with Light Snow 21 -6 18 -8 86 86 NE 6 9 30.31 1026 1.75 2.816345 0.001 0.001
9:54 am 09:54 Cloudy with Light Snow 21 -6.1 18 -7.8 88 88 NNW 5 7 30.28 1025 1.75 2.816345 0.001 0.001
9:57 am 09:57 Cloudy with Mist and Fog 21 -6.1 18 -7.8 88 88 NNW 3 6 30.32 1027 3 4.82802 0.001 0.001
10:54 am 10:54 Cloudy with Mist and Fog 22 -5.6 18 -7.8 85 85 NW 5 7 30.3 1026 5 8.0467 0.001 0.001
11:54 am 11:54 Cloudy with Mist and Fog 23 -5 19 -7.2 85 85 N 3 6 30.27 1025 6 9.65604 0 0
12:54 pm 12:54 Cloudy with Haze 24 -4.4 19 -7.2 81 81 N 5 7 30.27 1025 6 9.65604 0 0
1:26 pm 13:26 Partly Cloudy with Mist and Fog 24 -4.4 20 -6.7 84 84 N 5 7 30.3 1026 6 9.65604 0 0
1:54 pm 13:54 Cloudy with Haze 25 -3.9 20 -6.7 81 81 Calm 30.27 1025 6 9.65604 0 0
2:54 pm 14:54 Mostly Cloudy 26 -3.3 21 -6.1 81 81 Calm 30.26 1025 7 11.26538 0 0
3:54 pm 15:54 Partly Cloudy 27 -2.8 20 -6.7 75 75 Calm 30.28 1026 7 11.26538 0 0
4:54 pm 16:54 Sunny 25 -3.9 20 -6.7 81 81 Calm 30.29 1026 7 11.26538 0 0
5:54 pm 17:54 Partly Cloudy 23 -5 19 -7.2 85 85 WNW 5 7 30.32 1027 7 11.26538 0 0
7:54 pm 19:54 Clear with Mist and Fog 16 -8.9 13 -10.6 88 88 Calm 30.33 1027 5 8.0467 0 0
8:32 pm 20:32 Clear with Mist and Fog 11 -11.7 8 -13.3 88 88 N 3 6 30.4 1030 2 3.21868 0 0
8:54 pm 20:54 Clear with Mist and Fog 11 -11.7 8 -13.3 88 88 N 5 7 30.33 1027 5 8.0467 0 0
8:58 pm 20:58 Mostly Clear with Mist and Fog 10 -12.2 8 -13.3 92 92 NNE 5 7 30.39 1029 2.5 4.02335 0 0
9:35 pm 21:35 Mostly Cloudy with Freezing Fog 14 -10 12 -11.1 92 92 NNW 5 7 30.39 1029 0.25 0.402335 0 0
9:50 pm 21:50 Mostly Cloudy with Mist and Fog 14 -10 10 -12 85 85 NNW 6 9 30.39 1029 1 1.60934 0 0
9:54 pm 21:54 Cloudy with Mist and Fog 14 -10 12 -11.1 92 92 NNW 6 9 30.34 1027 4 6.43736 0 0
10:04 pm 22:04 Mostly Cloudy with Mist and Fog 15 -9.4 12 -11.1 88 88 NNW 5 7 30.39 1029 1 1.60934 0 0
10:11 pm 22:11 Mostly Cloudy with Freezing Fog 16 -8.9 13 -10.6 88 88 N 3 6 30.39 1029 0.25 0.402335 0 0
10:19 pm 22:19 Mostly Cloudy with Freezing Fog 16 -8.9 14 -10 92 92 Calm 30.39 1029 0.25 0.402335 0 0
10:40 pm 22:40 Mostly Cloudy with Freezing Fog 17 -8.3 14 -10 88 88 Calm 30.38 1029 N/A 0 0
11:28 pm 23:28 Mostly Cloudy with Freezing Fog 15 -9.4 12 -11.1 88 88 Calm 30.39 1029 0.25 0.402335 0 0
11:46 pm 23:46 Mostly Cloudy with Freezing Fog 14 -10 12 -11.1 92 92 Calm 30.39 1029 0.25 0.402335 0 0
11:54 pm 23:54 Mostly Cloudy with Mist and Fog 14 -10 12 -11.1 92 92 Calm 30.34 1027 0.75 1.207005 0 0

Powered by AerisWeather